Time,TemperatureF,DewpointF,PressureIn,WindDirection,WindDirectionDegrees,WindSpeedMPH,WindSpeedGustMPH,Humidity,HourlyPrecipIn,Conditions,Clouds,dailyrainin,SoftwareType,DateUTC
2013-08-06 00:02:00,55.0,47.0,-100.00,WSW,244,3.0,4.0,72,0.00,,,-99.99,,2013-08-06 04:02:00,
2013-08-06 00:11:00,55.0,47.0,-100.00,WSW,244,3.0,4.0,72,0.00,,,-99.99,,2013-08-06 04:11:00,
2013-08-06 00:33:00,55.0,46.0,-100.00,SW,229,2.0,3.0,72,0.00,,,-99.99,,2013-08-06 04:33:00,
2013-08-06 00:44:00,55.0,46.0,-100.00,SW,229,2.0,3.0,72,0.00,,,-99.99,,2013-08-06 04:44:00,
2013-08-06 00:54:00,54.0,46.0,-100.00,WSW,246,3.0,4.0,73,0.00,,,-99.99,,2013-08-06 04:54:00,
2013-08-06 01:02:00,54.0,46.0,-100.00,WSW,256,3.0,4.0,73,0.00,,,-99.99,,2013-08-06 05:02:00,
2013-08-06 01:11:00,54.0,46.0,-100.00,WSW,256,3.0,4.0,73,0.00,,,-99.99,,2013-08-06 05:11:00,
2013-08-06 01:32:00,55.0,46.0,-100.00,NE,54,2.0,4.0,71,0.00,,,-99.99,,2013-08-06 05:32:00,
2013-08-06 01:43:00,55.0,46.0,-100.00,NE,54,2.0,4.0,71,0.00,,,-99.99,,2013-08-06 05:43:00,
2013-08-06 01:53:00,55.0,47.0,-100.00,East,95,0.0,1.0,73,0.00,,,-99.99,,2013-08-06 05:53:00,
2013-08-06 02:02:00,55.0,47.0,-100.00,NE,41,1.0,2.0,73,0.00,,,-99.99,,2013-08-06 06:02:00,
2013-08-06 02:12:00,55.0,47.0,-100.00,NE,41,1.0,2.0,73,0.00,,,-99.99,,2013-08-06 06:12:00,
2013-08-06 02:32:00,53.0,46.0,-100.00,SW,233,2.0,3.0,77,0.00,,,-99.99,,2013-08-06 06:32:00,
2013-08-06 02:43:00,53.0,46.0,-100.00,SW,233,2.0,3.0,77,0.00,,,-99.99,,2013-08-06 06:43:00,
2013-08-06 02:52:00,53.0,46.0,-100.00,NW,326,1.0,2.0,76,0.00,,,-99.99,,2013-08-06 06:52:00,
2013-08-06 03:01:00,53.0,48.0,-100.00,NE,35,2.0,4.0,81,0.00,,,-99.99,,2013-08-06 07:01:00,
2013-08-06 03:12:00,53.0,48.0,-100.00,NE,35,2.0,4.0,81,0.00,,,-99.99,,2013-08-06 07:12:00,
2013-08-06 03:32:00,55.0,47.0,-100.00,SE,131,0.0,2.0,73,0.00,,,-99.99,,2013-08-06 07:32:00,
2013-08-06 03:43:00,55.0,47.0,-100.00,SE,131,0.0,2.0,73,0.00,,,-99.99,,2013-08-06 07:43:00,
2013-08-06 03:53:00,55.0,48.0,-100.00,NE,48,2.0,3.0,78,0.00,,,-99.99,,2013-08-06 07:53:00,
2013-08-06 04:02:00,55.0,48.0,-100.00,NNE,20,1.0,2.0,76,0.00,,,-99.99,,2013-08-06 08:02:00,
2013-08-06 04:11:00,55.0,48.0,-100.00,NNE,20,1.0,2.0,76,0.00,,,-99.99,,2013-08-06 08:11:00,
2013-08-06 04:22:00,54.0,49.0,-100.00,NE,41,1.0,2.0,80,0.00,,,-99.99,,2013-08-06 08:22:00,
2013-08-06 04:33:00,53.0,49.0,-100.00,South,188,2.0,3.0,85,0.00,,,-99.99,,2013-08-06 08:33:00,
2013-08-06 04:43:00,53.0,49.0,-100.00,South,188,2.0,3.0,85,0.00,,,-99.99,,2013-08-06 08:43:00,
2013-08-06 04:52:00,53.0,49.0,-100.00,ENE,59,2.0,3.0,88,0.00,,,-99.99,,2013-08-06 08:52:00,
2013-08-06 05:01:00,52.0,48.0,-100.00,NE,38,0.0,2.0,85,0.00,,,-99.99,,2013-08-06 09:01:00,
2013-08-06 05:11:00,52.0,48.0,-100.00,NE,38,0.0,2.0,85,0.00,,,-99.99,,2013-08-06 09:11:00,
2013-08-06 05:33:00,52.0,48.0,-100.00,SSW,196,1.0,2.0,86,0.00,,,-99.99,,2013-08-06 09:33:00,
2013-08-06 05:43:00,52.0,48.0,-100.00,SSW,196,1.0,2.0,86,0.00,,,-99.99,,2013-08-06 09:43:00,
2013-08-06 05:52:00,52.0,49.0,-100.00,WSW,247,1.0,2.0,88,0.00,,,-99.99,,2013-08-06 09:52:00,
2013-08-06 06:01:00,51.0,48.0,-100.00,NW,305,2.0,2.0,89,0.00,,,-99.99,,2013-08-06 10:01:00,
2013-08-06 06:12:00,51.0,48.0,-100.00,NW,305,2.0,2.0,89,0.00,,,-99.99,,2013-08-06 10:12:00,
2013-08-06 06:32:00,52.0,49.0,-100.00,SW,220,2.0,3.0,91,0.00,,,-99.99,,2013-08-06 10:32:00,
2013-08-06 06:43:00,52.0,49.0,-100.00,SW,220,2.0,3.0,91,0.00,,,-99.99,,2013-08-06 10:43:00,
2013-08-06 06:53:00,53.0,50.0,-100.00,SW,229,1.0,2.0,90,0.00,,,-99.99,,2013-08-06 10:53:00,
2013-08-06 07:02:00,55.0,50.0,-100.00,SSE,147,0.0,1.0,84,0.00,,,-99.99,,2013-08-06 11:02:00,
2013-08-06 07:11:00,55.0,50.0,-100.00,SSE,147,0.0,1.0,84,0.00,,,-99.99,,2013-08-06 11:11:00,
2013-08-06 07:22:00,55.0,51.0,-100.00,South,174,1.0,2.0,85,0.00,,,-99.99,,2013-08-06 11:22:00,
2013-08-06 07:32:00,56.0,51.0,-100.00,SW,219,1.0,2.0,84,0.00,,,-99.99,,2013-08-06 11:32:00,
2013-08-06 07:43:00,56.0,51.0,-100.00,SW,219,1.0,2.0,84,0.00,,,-99.99,,2013-08-06 11:43:00,
2013-08-06 07:53:00,58.0,52.0,-100.00,South,189,1.0,2.0,81,0.00,,,-99.99,,2013-08-06 11:53:00,
2013-08-06 08:02:00,60.0,52.0,-100.00,SSW,200,2.0,3.0,76,0.00,,,-99.99,,2013-08-06 12:02:00,
2013-08-06 08:11:00,60.0,52.0,-100.00,SSW,200,2.0,3.0,76,0.00,,,-99.99,,2013-08-06 12:11:00,
2013-08-06 08:32:00,62.0,52.0,-100.00,SSW,203,2.0,5.0,68,0.00,,,-99.99,,2013-08-06 12:32:00,
2013-08-06 08:43:00,62.0,52.0,-100.00,SSW,203,2.0,5.0,68,0.00,,,-99.99,,2013-08-06 12:43:00,
2013-08-06 08:52:00,63.0,52.0,-100.00,SW,223,1.0,3.0,67,0.00,,,-99.99,,2013-08-06 12:52:00,
2013-08-06 09:02:00,65.0,52.0,-100.00,SE,144,2.0,4.0,64,0.00,,,-99.99,,2013-08-06 13:02:00,
2013-08-06 09:11:00,65.0,52.0,-100.00,SE,144,2.0,4.0,64,0.00,,,-99.99,,2013-08-06 13:11:00,
2013-08-06 09:22:00,65.0,52.0,-100.00,SE,144,2.0,4.0,64,0.00,,,-99.99,,2013-08-06 13:22:00,
2013-08-06 09:32:00,65.0,53.0,-100.00,SSW,209,1.0,2.0,65,0.00,,,-99.99,,2013-08-06 13:32:00,
2013-08-06 09:42:00,65.0,53.0,-100.00,SSW,209,1.0,2.0,65,0.00,,,-99.99,,2013-08-06 13:42:00,
2013-08-06 09:53:00,64.0,52.0,-100.00,SSE,164,3.0,4.0,66,0.00,,,-99.99,,2013-08-06 13:53:00,
2013-08-06 10:01:00,66.0,53.0,-100.00,SSE,157,3.0,6.0,62,0.00,,,-99.99,,2013-08-06 14:01:00,
2013-08-06 10:11:00,66.0,53.0,-100.00,SSE,157,3.0,6.0,62,0.00,,,-99.99,,2013-08-06 14:11:00,
2013-08-06 10:32:00,68.0,54.0,-100.00,SW,227,2.0,4.0,61,0.00,,,-99.99,,2013-08-06 14:32:00,
2013-08-06 10:42:00,68.0,54.0,-100.00,SW,227,2.0,4.0,61,0.00,,,-99.99,,2013-08-06 14:42:00,
2013-08-06 10:53:00,68.0,53.0,-100.00,South,172,4.0,5.0,57,0.00,,,-99.99,,2013-08-06 14:53:00,
2013-08-06 11:02:00,69.0,56.0,-100.00,SE,137,3.0,5.0,62,0.00,,,-99.99,,2013-08-06 15:02:00,
2013-08-06 11:12:00,69.0,56.0,-100.00,SE,137,3.0,5.0,62,0.00,,,-99.99,,2013-08-06 15:12:00,
2013-08-06 11:44:00,71.0,54.0,-100.00,NW,316,2.0,5.0,55,0.00,,,-99.99,,2013-08-06 15:44:00,
2013-08-06 11:52:00,71.0,55.0,-100.00,South,178,3.0,4.0,56,0.00,,,-99.99,,2013-08-06 15:52:00,
2013-08-06 12:02:00,74.0,58.0,-100.00,SSW,205,2.0,4.0,58,0.00,,,-99.99,,2013-08-06 16:02:00,
2013-08-06 12:11:00,74.0,58.0,-100.00,SSW,205,2.0,4.0,58,0.00,,,-99.99,,2013-08-06 16:11:00,
2013-08-06 12:22:00,74.0,54.0,-100.00,SW,234,1.0,4.0,49,0.00,,,-99.99,,2013-08-06 16:22:00,
2013-08-06 12:32:00,74.0,55.0,-100.00,SW,222,3.0,4.0,51,0.00,,,-99.99,,2013-08-06 16:32:00,
2013-08-06 12:43:00,74.0,55.0,-100.00,SW,222,3.0,4.0,51,0.00,,,-99.99,,2013-08-06 16:43:00,
2013-08-06 12:52:00,72.0,53.0,-100.00,WSW,243,3.0,5.0,51,0.00,,,-99.99,,2013-08-06 16:52:00,
2013-08-06 13:02:00,72.0,55.0,-100.00,SSW,193,1.0,4.0,56,0.00,,,-99.99,,2013-08-06 17:02:00,
2013-08-06 13:11:00,72.0,55.0,-100.00,SSW,193,1.0,4.0,56,0.00,,,-99.99,,2013-08-06 17:11:00,
2013-08-06 13:32:00,73.0,57.0,-100.00,SSE,164,2.0,4.0,57,0.00,,,-99.99,,2013-08-06 17:32:00,
2013-08-06 13:44:00,73.0,57.0,-100.00,SSE,164,2.0,4.0,57,0.00,,,-99.99,,2013-08-06 17:44:00,
2013-08-06 13:52:00,73.0,57.0,-100.00,SSE,164,2.0,4.0,57,0.00,,,-99.99,,2013-08-06 17:52:00,
2013-08-06 14:02:00,73.0,57.0,-100.00,SSE,150,2.0,3.0,58,0.00,,,-99.99,,2013-08-06 18:02:00,
2013-08-06 14:11:00,73.0,57.0,-100.00,SSE,150,2.0,3.0,58,0.00,,,-99.99,,2013-08-06 18:11:00,
2013-08-06 14:22:00,75.0,57.0,-100.00,SSE,164,2.0,4.0,54,0.00,,,-99.99,,2013-08-06 18:22:00,
2013-08-06 14:32:00,76.0,56.0,-100.00,SE,144,2.0,4.0,50,0.00,,,-99.99,,2013-08-06 18:32:00,
2013-08-06 14:43:00,76.0,56.0,-100.00,SE,144,2.0,4.0,50,0.00,,,-99.99,,2013-08-06 18:43:00,
2013-08-06 14:52:00,71.0,56.0,-100.00,SSW,209,2.0,6.0,59,0.00,,,-99.99,,2013-08-06 18:52:00,
2013-08-06 15:01:00,74.0,57.0,-100.00,South,178,1.0,2.0,56,0.00,,,-99.99,,2013-08-06 19:01:00,
2013-08-06 15:11:00,74.0,57.0,-100.00,South,178,1.0,2.0,56,0.00,,,-99.99,,2013-08-06 19:11:00,
2013-08-06 15:22:00,74.0,57.0,-100.00,SSE,157,1.0,2.0,55,0.00,,,-99.99,,2013-08-06 19:22:00,
2013-08-06 15:32:00,74.0,55.0,-100.00,South,176,1.0,3.0,53,0.00,,,-99.99,,2013-08-06 19:32:00,
2013-08-06 15:42:00,74.0,55.0,-100.00,South,176,1.0,3.0,53,0.00,,,-99.99,,2013-08-06 19:42:00,
2013-08-06 15:52:00,74.0,57.0,-100.00,SE,145,2.0,4.0,55,0.00,,,-99.99,,2013-08-06 19:52:00,
2013-08-06 16:01:00,73.0,57.0,-100.00,South,185,2.0,4.0,57,0.00,,,-99.99,,2013-08-06 20:01:00,
2013-08-06 16:11:00,73.0,57.0,-100.00,South,185,2.0,4.0,57,0.00,,,-99.99,,2013-08-06 20:11:00,
2013-08-06 16:22:00,71.0,56.0,-100.00,South,179,2.0,5.0,59,0.00,,,-99.99,,2013-08-06 20:22:00,
2013-08-06 16:44:00,73.0,56.0,-100.00,SSE,167,1.0,3.0,55,0.00,,,-99.99,,2013-08-06 20:44:00,
2013-08-06 16:52:00,73.0,57.0,-100.00,South,188,0.0,2.0,57,0.00,,,-99.99,,2013-08-06 20:52:00,
2013-08-06 17:01:00,72.0,57.0,-100.00,South,179,1.0,3.0,57,0.00,,,-99.99,,2013-08-06 21:01:00,
2013-08-06 17:12:00,72.0,57.0,-100.00,South,179,1.0,3.0,57,0.00,,,-99.99,,2013-08-06 21:12:00,
2013-08-06 17:22:00,72.0,57.0,-100.00,South,174,3.0,6.0,60,0.00,,,-99.99,,2013-08-06 21:22:00,
2013-08-06 17:32:00,72.0,57.0,-100.00,SSW,202,1.0,4.0,59,0.00,,,-99.99,,2013-08-06 21:32:00,
2013-08-06 17:43:00,72.0,57.0,-100.00,SSW,202,1.0,4.0,59,0.00,,,-99.99,,2013-08-06 21:43:00,
2013-08-06 17:52:00,71.0,57.0,-100.00,SSE,154,2.0,4.0,60,0.00,,,-99.99,,2013-08-06 21:52:00,
2013-08-06 18:01:00,71.0,56.0,-100.00,South,179,2.0,7.0,58,0.00,,,-99.99,,2013-08-06 22:01:00,
2013-08-06 18:11:00,71.0,56.0,-100.00,South,179,2.0,7.0,58,0.00,,,-99.99,,2013-08-06 22:11:00,
2013-08-06 18:22:00,69.0,57.0,-100.00,WSW,243,1.0,3.0,64,0.00,,,-99.99,,2013-08-06 22:22:00,
2013-08-06 18:32:00,67.0,57.0,-100.00,SSW,208,2.0,5.0,70,0.00,,,-99.99,,2013-08-06 22:32:00,
2013-08-06 18:43:00,67.0,57.0,-100.00,SSW,208,2.0,5.0,70,0.00,,,-99.99,,2013-08-06 22:43:00,
2013-08-06 18:53:00,67.0,57.0,-100.00,SSW,202,3.0,6.0,70,0.00,,,-99.99,,2013-08-06 22:53:00,
2013-08-06 19:02:00,67.0,56.0,-100.00,SW,226,4.0,7.0,67,0.00,,,-99.99,,2013-08-06 23:02:00,
2013-08-06 19:11:00,67.0,56.0,-100.00,SW,226,4.0,7.0,67,0.00,,,-99.99,,2013-08-06 23:11:00,
2013-08-06 19:22:00,67.0,56.0,-100.00,SW,220,4.0,7.0,67,0.00,,,-99.99,,2013-08-06 23:22:00,
2013-08-06 19:33:00,67.0,56.0,-100.00,SW,220,4.0,7.0,67,0.00,,,-99.99,,2013-08-06 23:33:00,
2013-08-06 19:43:00,67.0,56.0,-100.00,WSW,241,4.0,6.0,68,0.00,,,-99.99,,2013-08-06 23:43:00,
2013-08-06 19:52:00,67.0,56.0,-100.00,SW,230,4.0,5.0,68,0.00,,,-99.99,,2013-08-06 23:52:00,
2013-08-06 20:01:00,66.0,56.0,-100.00,SW,236,5.0,6.0,71,0.00,,,-99.99,,2013-08-07 00:01:00,
2013-08-06 20:11:00,66.0,56.0,-100.00,SW,236,5.0,6.0,71,0.00,,,-99.99,,2013-08-07 00:11:00,
2013-08-06 20:22:00,65.0,56.0,-100.00,WSW,239,4.0,5.0,74,0.00,,,-99.99,,2013-08-07 00:22:00,
2013-08-06 20:32:00,65.0,55.0,-100.00,WSW,237,4.0,6.0,72,0.00,,,-99.99,,2013-08-07 00:32:00,
2013-08-06 20:43:00,65.0,55.0,-100.00,WSW,237,4.0,6.0,72,0.00,,,-99.99,,2013-08-07 00:43:00,
2013-08-06 20:52:00,64.0,55.0,-100.00,SW,230,4.0,5.0,72,0.00,,,-99.99,,2013-08-07 00:52:00,
2013-08-06 21:01:00,63.0,54.0,-100.00,SW,236,4.0,6.0,72,0.00,,,-99.99,,2013-08-07 01:01:00,
2013-08-06 21:11:00,63.0,54.0,-100.00,SW,236,4.0,6.0,72,0.00,,,-99.99,,2013-08-07 01:11:00,
2013-08-06 21:22:00,63.0,54.0,-100.00,SW,236,4.0,6.0,72,0.00,,,-99.99,,2013-08-07 01:22:00,
2013-08-06 21:32:00,62.0,53.0,-100.00,WSW,243,3.0,4.0,72,0.00,,,-99.99,,2013-08-07 01:32:00,
2013-08-06 21:43:00,62.0,53.0,-100.00,WSW,243,3.0,4.0,72,0.00,,,-99.99,,2013-08-07 01:43:00,
2013-08-06 22:11:00,62.0,53.0,-100.00,WSW,256,2.0,2.0,73,0.00,,,-99.99,,2013-08-07 02:11:00,
2013-08-06 22:22:00,62.0,53.0,-100.00,SW,226,3.0,4.0,73,0.00,,,-99.99,,2013-08-07 02:22:00,
2013-08-06 22:33:00,61.0,53.0,-100.00,SW,233,2.0,5.0,72,0.00,,,-99.99,,2013-08-07 02:33:00,
2013-08-06 22:43:00,61.0,53.0,-100.00,SW,233,2.0,5.0,72,0.00,,,-99.99,,2013-08-07 02:43:00,
2013-08-06 22:53:00,62.0,52.0,-100.00,West,267,2.0,2.0,71,0.00,,,-99.99,,2013-08-07 02:53:00,
2013-08-06 23:01:00,62.0,52.0,-100.00,WSW,258,1.0,3.0,70,0.00,,,-99.99,,2013-08-07 03:01:00,
2013-08-06 23:12:00,62.0,52.0,-100.00,WSW,258,1.0,3.0,70,0.00,,,-99.99,,2013-08-07 03:12:00,
2013-08-06 23:32:00,60.0,55.0,-100.00,NE,37,1.0,1.0,84,0.00,,,-99.99,,2013-08-07 03:32:00,
2013-08-06 23:43:00,60.0,55.0,-100.00,NE,37,1.0,1.0,84,0.00,,,-99.99,,2013-08-07 03:43:00,
2013-08-06 23:52:00,59.0,55.0,-100.00,SE,130,0.0,1.0,87,0.00,,,-99.99,,2013-08-07 03:52:00,